Погода в Хинтоне

Канада     53°23′45″N   117°35′49″W
темп.,
°C
ветер,
м/с
пор.,
м/с
влажн.,
%
обл.,
%
осадки,
мм/ч
давл.,
гПа
погр.,
м
28 ноября, вс
вс2823:00−3юз3889100 0.0 1007161
02:00−3юз4987100 0.0 1006168
05:00−2ююз2790100 0.0 1006145
08:00−3зюз3793100 0.0 1006117
11:000юз4885100 0.0 1006190
14:00+1юз4991100 0.1 1006276
17:00−1юз3119395 0.1 1008210
20:00−3юз399435 0.0 1010134
29 ноября, пн
пн2923:00−7з119736 0.0 101414
02:00−7юз229312 0.0 101515
05:00−6юз259226 0.0 101578
08:00−7зюз229618 0.0 101733
11:00−1зюз27825 0.0 1015289
14:00+3з14773 0.0 1013228
17:00−5зюз119695 0.0 101910
20:00−3ююз3794100 0.0 101896
30 ноября, вт
вт3023:00−4юз413928 0.0 1016225
02:00−4юз4988100 0.0 1015172
05:00−4юз3891100 0.0 1013131
08:00−3юз4986100 0.0 1011198
11:00−2юз258799 0.1 1010156
14:000юз388497 0.0 1007280
17:00−1ююз2592100 0.1 1005111
20:00−1ю2394100 0.0 100463
1 декабря, ср
ср123:00−3юз2394100 0.0 100250
02:00+7зюз82066100 0.0 996973
05:00+1з41486100 0.0 1002327
08:00−1зюз2396100 0.0 100666
11:00+1юз1299100 0.8 1007105
14:00+1ю12100100 0.8 1006114
17:00+1ссв2599100 0.9 1008210
20:000ю1299100 0.1 100970
2 декабря, чт
чт223:00−2всв1298100 0.1 101075
02:00−3ссв1398100 0.0 101380
05:00−6всв019871 0.1 101711
08:00−5сз019799 0.1 101740
11:00−3ююв1289100 0.1 1017316
14:00−2ссв1381100 0.0 1017599
17:00−4св1392100 0.8 1019193
20:00−5з1287100 0.0 1020119